Hourly Weather Roundup
Issued by NWS Central Illinois

Home | Current Version | Previous Version | Text Only | Print | Product List | Glossary On
Versions: 1 2 3 4 5 6 7 8 9 10 11 12 13 14 15 16 17 18 19 20 21 22 23 24 25 26 27 28 29 30 31 32 33 34 35 36 37 38 39 40 41 42 43 44 45 46 47 48 49 50
000
NZUS43 KILX 210010
HWRILX

AREA WEATHER ROUNDUP
NATIONAL WEATHER SERVICE, LINCOLN IL
700 PM CDT MON APR 20 2015


CITY           SKY/WX    TMP DP  RH WIND       PRES   REMARKS
BLOOMINGTON    PTCLDY    49  34  56 W15       29.69R
6HR MIN TEMP:  49; 6HR MAX TEMP:  52;

CHAMPAIGN      MOCLDY    48  38  68 W14       29.71R
6HR MIN TEMP:  47; 6HR MAX TEMP:  53; 6HR PCP: TRACE;

DECATUR        CLOUDY    50  33  52 W12G23    29.73R
6HR MIN TEMP:  50; 6HR MAX TEMP:  54; 6HR PCP: TRACE;

EFFINGHAM      CLOUDY    51  32  47 W16G22    29.78R
FLORA          CLOUDY    53  35  50 W13G20    29.79R
6HR MIN TEMP:  53; 6HR MAX TEMP:  56;

GALESBURG      CLOUDY    49  34  58 W16       29.68R
JACKSONVILLE   PTCLDY    53  35  50 W12       29.75R
6HR MIN TEMP:  50; 6HR MAX TEMP:  54;

LACON          PTCLDY    47  33  58 W9G20     29.67R
6HR MIN TEMP:  45; 6HR MAX TEMP:  51;

LAWRENCEVILLE  CLOUDY    53  37  54 W10       29.77R
6HR MIN TEMP:  53; 6HR MAX TEMP:  59;

LITCHFIELD     CLOUDY    50  33  51 W13       29.77S
$$


CITY           SKY/WX    TMP DP  RH WIND       PRES   REMARKS
LINCOLN        CLOUDY    51  35  53 W6        29.71R
6HR MIN TEMP:  50; 6HR MAX TEMP:  54;

MACOMB         CLOUDY    51  35  53 W12       29.72S
MATTOON        CLOUDY    49  36  61 W13G18    29.74R
6HR MIN TEMP:  49; 6HR MAX TEMP:  54; 6HR PCP: TRACE;

MT CARMEL AP   CLOUDY    55  34  44 W18G25    29.77R
OLNEY-NOBLE AP CLOUDY    52  36  54 W10       29.78R
PARIS          CLOUDY    49  41  74 W12       29.74R
6HR MIN TEMP:  49; 6HR MAX TEMP:  54;

PEORIA         MOCLDY    52  31  44 W16G25    29.69R
6HR MIN TEMP:  50; 6HR MAX TEMP:  53; 6HR PCP: TRACE;

PONTIAC        LGT RAIN  46  39  77 W20G39    29.68R
RANTOUL        MOCLDY    49  37  63 W14G23    29.69S
6HR MIN TEMP:  49; 6HR MAX TEMP:  55;

ROBINSON       CLOUDY    51  37  56 W15G23    29.77R
6HR MIN TEMP:  51; 6HR MAX TEMP:  57;

SPRINGFIELD    MOCLDY    52  35  52 W18       29.74R
6HR MIN TEMP:  50; 6HR MAX TEMP:  53;

TAYLORVILLE    CLOUDY    48  34  57 W10G17    29.75S
$$

...REGIONAL REPORTS...


CITY           SKY/WX    TMP DP  RH WIND       PRES   REMARKS
CHICAGO O`HARE CLOUDY    46  31  55 W20G33    29.57R
KANKAKEE       CLOUDY    47  36  64 W17G24    29.64R
MOLINE         MOCLDY    48  33  56 W14       29.65R
MOUNT VERNON   MOCLDY    54  34  47 W6        29.80R
PITTSFIELD     PTCLDY    54  32  43 W12G20    29.77R
QUINCY         MOCLDY    52  27  38 W15G31    29.75R
ROCKFORD       MOCLDY    46  30  53 W16G25    29.60R
$$


CITY           SKY/WX    TMP DP  RH WIND       PRES   REMARKS
BURLINGTON     MOCLDY    52  29  41 W15G23    29.69R
CEDAR RAPIDS   PTCLDY    47  38  71 NW14      29.64S
DES MOINES     MOSUNNY   55  11  17 NW22G33   29.68S
KIRKSVILLE     MOCLDY    53  26  35 W12G25    29.75F
OTTUMWA        MOCLDY    52  23  32 W17G24    29.68S
ST LOUIS       MOCLDY    56  31  38 W12       29.79R
$$


CITY           SKY/WX    TMP DP  RH WIND       PRES   REMARKS
TERRE HAUTE    CLOUDY    51  35  54 W13       29.73R
EVANSVILLE     CLOUDY    56  37  49 NW7       29.78R
INDIANAPOLIS   CLOUDY    49  36  61 W20G25    29.68R
LAFAYETTE      CLOUDY    46  37  71 W12       29.67R
MADISON        CLOUDY    43  29  57 W9G20     29.52R
MILWAUKEE      CLOUDY    44  30  57 W17G25    29.51R
$$




USA.gov is the U.S. government's official web portal to all federal, state and local government web resources and services.